Observations for Trim Market St
| Time | AQI | Temp °C | Hum % | Pres Pa | CO μg/m³ | H₂S μg/m³ | NO μg/m³ | NO₂ μg/m³ | O₃ μg/m³ | SO₂ μg/m³ | PM1 μg/m³ | PM2.5 μg/m³ | PM10 μg/m³ |
|---|---|---|---|---|---|---|---|---|---|---|---|---|---|
| Tuesday 18 August 2026 | |||||||||||||
| 13:30 | 2 | 22.5 | 63 | 56,786 | 0 | 0 | 3 | 13.53 | 72.79 | 0 | 0 | 1.41 | 2.17 |
| 13:29 | 2 | 22.4 | 63 | 56,669 | 0 | 0 | 3.59 | 15.11 | 70.23 | 0 | 0 | 1.4 | 2.18 |
| 13:28 | 2 | 22.2 | 63 | 56,537 | 0.08 | 3.98 | 4.35 | 49.93 | 53.29 | 0 | 0 | 2.39 | 3.52 |
| 13:27 | 2 | 22.1 | 63 | 56,442 | 0.17 | 6.04 | 4.06 | 43.87 | 63.75 | 0 | 0 | 1.89 | 3.53 |
| 13:26 | 2 | 22 | 63 | 56,406 | 0.71 | 7.42 | 3.8 | 30.48 | 70.14 | 0 | 0 | 1.39 | 2.19 |
| 13:25 | 2 | 22 | 63 | 56,340 | 0.13 | 3.53 | 3.3 | 26.12 | 70.81 | 0 | 0 | 1.39 | 2.19 |
| 13:24 | 2 | 21.9 | 63 | 56,263 | 0 | 5.97 | 3.26 | 39.45 | 65.81 | 0 | 0 | 1.39 | 2.19 |
| 13:23 | 2 | 21.8 | 63 | 56,226 | 0 | 7 | 2.76 | 39.6 | 67.84 | 0 | 0 | 1.4 | 2.19 |
| 13:22 | 2 | 21.7 | 63 | 56,223 | 0 | 3.83 | 2.16 | 22.15 | 79.32 | 0 | 0 | 1.4 | 2.18 |
| 13:21 | 2 | 21.6 | 63 | 56,235 | 0 | 3.96 | 2.12 | 17.78 | 85.52 | 0 | 0 | 1.4 | 2.18 |
| 13:20 | 2 | 21.6 | 63 | 56,228 | 0 | 3.94 | 2.35 | 18.68 | 84.54 | 0 | 0 | 1.4 | 2.18 |
| 13:19 | 2 | 21.6 | 63 | 56,217 | 0 | 2.91 | 1.65 | 13.95 | 86.3 | 0 | 0 | 1.4 | 2.18 |
| 13:18 | 2 | 21.5 | 63 | 56,236 | 0 | 4.6 | 1.53 | 15.7 | 88.51 | 0 | 0 | 1.41 | 2.17 |
| 13:16 | 2 | 21.5 | 62 | 56,305 | 0 | 6.63 | 1.38 | 20.43 | 85.25 | 0 | 0 | 1.42 | 2.15 |
| 13:15 | 2 | 21.5 | 62 | 56,403 | 0 | 7.26 | 1.26 | 20.61 | 86.89 | 0 | 0 | 1.44 | 2.13 |
| 13:14 | 2 | 21.5 | 62 | 56,547 | 0 | 6.44 | 1.26 | 14.88 | 87.26 | 0 | 0 | 1.45 | 2.12 |
| 13:13 | 2 | 21.5 | 61 | 56,667 | 0 | 5.41 | 1.26 | 14.81 | 88.47 | 0 | 0 | 1.47 | 2.1 |
| 13:12 | 2 | 21.6 | 61 | 56,774 | 0 | 5.6 | 3.01 | 13.75 | 90.01 | 0 | 0 | 1.48 | 2.09 |
| 13:11 | 2 | 21.6 | 61 | 56,868 | 0 | 5.47 | 3.31 | 13.22 | 98.55 | 0 | 0 | 1.49 | 2.08 |
| 13:09 | 2 | 21.8 | 60 | 57,039 | 0 | 2.32 | 3.36 | 12.98 | 78.24 | 0 | 0 | 1.51 | 2.05 |